TimeCDT,TemperatureF,Dew PointF,Humidity,Sea Level PressureIn,VisibilityMPH,Wind Direction,Wind SpeedMPH,Gust SpeedMPH,PrecipitationIn,Events,Conditions,WindDirDegrees,DateUTC
12:15 AM,41.0,35.6,81,29.89,10.0,Calm,Calm,-,N/A,,Clear,0,2012-10-20 05:15:00
12:35 AM,39.2,35.6,87,29.89,10.0,Calm,Calm,-,N/A,,Clear,0,2012-10-20 05:35:00
12:55 AM,39.2,35.6,87,29.89,10.0,Calm,Calm,-,N/A,,Clear,0,2012-10-20 05:55:00
1:15 AM,39.2,35.6,87,29.89,10.0,Calm,Calm,-,N/A,,Clear,0,2012-10-20 06:15:00
1:35 AM,37.4,35.6,93,29.89,10.0,Calm,Calm,-,N/A,,Clear,0,2012-10-20 06:35:00
1:55 AM,37.4,35.6,93,29.89,10.0,Calm,Calm,-,N/A,,Clear,0,2012-10-20 06:55:00
2:15 AM,39.2,35.6,87,29.89,10.0,Calm,Calm,-,N/A,,Clear,0,2012-10-20 07:15:00
2:35 AM,39.2,35.6,87,29.89,10.0,Calm,Calm,-,N/A,,Clear,0,2012-10-20 07:35:00
2:55 AM,37.4,35.6,93,29.89,10.0,Calm,Calm,-,N/A,,Clear,0,2012-10-20 07:55:00
3:15 AM,39.2,35.6,87,29.88,10.0,Calm,Calm,-,N/A,,Clear,0,2012-10-20 08:15:00
3:35 AM,39.2,35.6,87,29.88,10.0,Calm,Calm,-,N/A,,Clear,0,2012-10-20 08:35:00
3:55 AM,39.2,37.4,93,29.87,10.0,Calm,Calm,-,N/A,,Clear,0,2012-10-20 08:55:00
4:15 AM,37.4,35.6,93,29.87,10.0,ENE,3.5,-,N/A,,Clear,60,2012-10-20 09:15:00
4:35 AM,37.4,35.6,93,29.87,10.0,Calm,Calm,-,N/A,,Clear,0,2012-10-20 09:35:00
4:55 AM,37.4,35.6,93,29.87,10.0,Calm,Calm,-,N/A,,Clear,0,2012-10-20 09:55:00
5:15 AM,39.2,35.6,87,29.87,10.0,East,3.5,-,N/A,,Clear,90,2012-10-20 10:15:00
5:35 AM,37.4,35.6,93,29.88,10.0,East,3.5,-,N/A,,Clear,80,2012-10-20 10:35:00
5:55 AM,39.2,35.6,87,29.88,10.0,East,3.5,-,N/A,,Clear,80,2012-10-20 10:55:00
6:35 AM,41.0,35.6,81,29.88,10.0,ENE,4.6,-,N/A,,Clear,70,2012-10-20 11:35:00
6:55 AM,41.0,35.6,81,29.88,10.0,ESE,3.5,-,N/A,,Clear,120,2012-10-20 11:55:00
7:15 AM,42.8,35.6,76,29.87,10.0,ESE,5.8,-,N/A,,Clear,120,2012-10-20 12:15:00
7:35 AM,42.8,35.6,76,29.86,10.0,ESE,4.6,-,N/A,,Clear,120,2012-10-20 12:35:00
7:55 AM,42.8,35.6,76,29.86,10.0,East,5.8,-,N/A,,Clear,100,2012-10-20 12:55:00
8:15 AM,44.6,35.6,71,29.87,10.0,ESE,6.9,-,N/A,,Clear,120,2012-10-20 13:15:00
8:35 AM,46.4,37.4,71,29.87,10.0,ESE,5.8,-,N/A,,Clear,120,2012-10-20 13:35:00
9:15 AM,51.8,37.4,58,29.88,10.0,SE,5.8,-,N/A,,Clear,140,2012-10-20 14:15:00
9:35 AM,53.6,39.2,58,29.88,10.0,SSE,5.8,-,N/A,,Clear,160,2012-10-20 14:35:00
9:55 AM,59.0,39.2,48,29.88,10.0,SSE,8.1,-,N/A,,Clear,160,2012-10-20 14:55:00
10:15 AM,60.8,41.0,48,29.88,10.0,SSE,6.9,-,N/A,,Clear,150,2012-10-20 15:15:00
10:35 AM,62.6,39.2,42,29.88,10.0,South,12.7,-,N/A,,Clear,170,2012-10-20 15:35:00
11:15 AM,64.4,39.2,40,29.86,10.0,South,13.8,-,N/A,,Clear,190,2012-10-20 16:15:00
11:35 AM,66.2,41.0,40,29.86,10.0,South,10.4,-,N/A,,Scattered Clouds,180,2012-10-20 16:35:00
11:55 AM,68.0,41.0,37,29.86,10.0,South,13.8,-,N/A,,Clear,180,2012-10-20 16:55:00
12:15 PM,69.8,42.8,38,29.86,10.0,South,12.7,17.3,N/A,,Clear,190,2012-10-20 17:15:00
12:35 PM,71.6,44.6,38,29.85,10.0,SSW,10.4,-,N/A,,Clear,200,2012-10-20 17:35:00
12:55 PM,71.6,46.4,41,29.83,10.0,SSW,9.2,-,N/A,,Clear,200,2012-10-20 17:55:00
1:15 PM,73.4,46.4,38,29.83,10.0,South,10.4,-,N/A,,Clear,190,2012-10-20 18:15:00
1:35 PM,73.4,46.4,38,29.82,10.0,South,10.4,17.3,N/A,,Clear,180,2012-10-20 18:35:00
1:55 PM,77.0,46.4,34,29.81,10.0,SSW,12.7,16.1,N/A,,Clear,200,2012-10-20 18:55:00
2:15 PM,77.0,46.4,34,29.80,10.0,South,8.1,16.1,N/A,,Clear,180,2012-10-20 19:15:00
2:35 PM,77.0,48.2,36,29.79,10.0,South,12.7,16.1,N/A,,Clear,170,2012-10-20 19:35:00
2:55 PM,78.8,50.0,36,29.78,10.0,SSW,12.7,17.3,N/A,,Clear,200,2012-10-20 19:55:00
3:15 PM,78.8,50.0,36,29.78,10.0,South,8.1,-,N/A,,Clear,190,2012-10-20 20:15:00
3:55 PM,80.6,51.8,37,29.76,10.0,SSE,12.7,17.3,N/A,,Clear,160,2012-10-20 20:55:00
4:15 PM,80.6,51.8,37,29.76,10.0,SSE,10.4,-,N/A,,Clear,160,2012-10-20 21:15:00
4:35 PM,78.8,51.8,39,29.75,10.0,SE,13.8,-,N/A,,Scattered Clouds,140,2012-10-20 21:35:00
5:15 PM,77.0,51.8,41,29.76,10.0,SSE,11.5,-,N/A,,Clear,150,2012-10-20 22:15:00
5:35 PM,77.0,51.8,41,29.75,10.0,South,9.2,-,N/A,,Clear,170,2012-10-20 22:35:00
6:15 PM,75.2,53.6,47,29.75,10.0,SSE,5.8,-,N/A,,Clear,160,2012-10-20 23:15:00
6:35 PM,71.6,53.6,53,29.75,10.0,SSE,6.9,-,N/A,,Scattered Clouds,160,2012-10-20 23:35:00
7:15 PM,68.0,53.6,60,29.76,10.0,SE,6.9,-,N/A,,Clear,140,2012-10-21 00:15:00
7:35 PM,68.0,53.6,60,29.77,10.0,SE,8.1,-,N/A,,Clear,140,2012-10-21 00:35:00
7:55 PM,66.2,53.6,64,29.77,10.0,SE,6.9,-,N/A,,Clear,140,2012-10-21 00:55:00
8:15 PM,66.2,53.6,64,29.78,10.0,SE,8.1,-,N/A,,Clear,140,2012-10-21 01:15:00
8:35 PM,64.4,53.6,68,29.78,10.0,SE,9.2,-,N/A,,Clear,140,2012-10-21 01:35:00
8:55 PM,66.2,53.6,64,29.78,10.0,SE,9.2,-,N/A,,Clear,130,2012-10-21 01:55:00
9:15 PM,66.2,53.6,64,29.78,10.0,SE,9.2,-,N/A,,Clear,140,2012-10-21 02:15:00
9:35 PM,64.4,53.6,68,29.79,10.0,SE,8.1,-,N/A,,Clear,140,2012-10-21 02:35:00
9:55 PM,64.4,53.6,68,29.80,10.0,SE,8.1,-,N/A,,Clear,140,2012-10-21 02:55:00
10:15 PM,64.4,53.6,68,29.80,10.0,SSE,8.1,-,N/A,,Clear,150,2012-10-21 03:15:00
10:35 PM,64.4,53.6,68,29.80,10.0,SSE,6.9,-,N/A,,Clear,150,2012-10-21 03:35:00
11:35 PM,66.2,53.6,64,29.80,10.0,SE,9.2,-,N/A,,Scattered Clouds,140,2012-10-21 04:35:00
11:55 PM,64.4,53.6,68,29.80,10.0,SE,9.2,-,N/A,,Clear,140,2012-10-21 04:55:00